Weather History for Pensacola, FL

Change the Weather History Date:

Thursday, December 5, 2013

  Actual Average Record
Temperature  
Mean Temperature 76 °F 56 °F  
Max Temperature 79 °F 65 °F 79 °F (1958)
Min Temperature 72 °F 46 °F 26 °F (1893)
Degree Days  
Heating Degree Days 0 10  
Month to date heating degree days 13 48  
Since 1 July heating degree days 218 260  
Cooling Degree Days 11 1  
Month to date cooling degree days 20 5  
Year to date cooling degree days 2738 2601  
Growing Degree Days 24 (Base 50)    
Moisture  
Dew Point 71 °F    
Average Humidity 88    
Maximum Humidity 93    
Minimum Humidity 82    
Precipitation  
Precipitation T in 0.16 in 3.30 in (2004)
Month to date precipitation 0.89 0.79  
Year to date precipitation 71.74 61.51  
Snow  
Snow 0.00 in 0.00 in 0.00 in (2002)
Month to date snowfall 0.0 0.0  
Since 1 July snowfall 0.0 0.0  
Snow Depth 0.00 in    
Sea Level Pressure  
Sea Level Pressure 30.02 in    
Wind  
Wind Speed 11 mph (South)    
Max Wind Speed 18 mph    
Max Gust Speed 23 mph    
Visibility 6 miles    
Events Fog , Rain    
T = Trace of Precipitation, MM = Missing Value Source: NWS Daily Summary

Daily Weather History Graph

Daily Weather History Graph

Search for Another Location

Airport:

Trip Planner

Search our weather history database for the weather conditions in past years. The results will help you decide how hot, cold, wet, or windy it might be!

Date:

Astronomy

Dec. 05, 2013 Rise Set
Actual Time 6:31 AM CST 4:47 PM CST
Civil Twilight 6:05 AM CST 5:13 PM CST
Nautical Twilight 5:35 AM CST 5:43 PM CST
Astronomical Twilight 5:06 AM CST 6:12 PM CST
Moon 8:56 AM CST (12/5) 8:01 PM CST (12/5)
Length of Visible Light 11h 08m
Length of Day
10h 16m
Waxing Crescent, 11% of the Moon is Illuminated
Dec 5
Waxing Crescent
Dec 9
First Quarter
Dec 17
Full
Dec 25
Last Quarter
Jan 1
New

Hourly Weather History & Observations

Time (CST) Temp. Dew Point Humidity Pressure Visibility Wind Dir Wind Speed Gust Speed Precip Events Conditions
12:07 AM 73.4 °F 71.6 °F 94% 29.99 in 5.0 mi WSW 8.1 mph - N/A   Overcast
12:53 AM 73.0 °F 71.1 °F 93% 30.00 in 2.0 mi SSW 10.4 mph - N/A   Overcast
1:35 AM 73.4 °F 71.6 °F 94% 30.00 in 1.8 mi SSW 12.7 mph - N/A   Overcast
1:53 AM 73.0 °F 71.1 °F 93% 30.00 in 1.2 mi SSW 9.2 mph - N/A   Overcast
2:51 AM 73.4 °F 71.6 °F 94% 29.99 in 0.8 mi South 10.4 mph - 0.00 in   Mist
2:53 AM 73.0 °F 71.1 °F 93% 30.00 in 0.5 mi South 11.5 mph - 0.00 in Fog Fog
3:10 AM 73.4 °F 71.6 °F 94% 29.99 in 1.5 mi SSW 10.4 mph - N/A   Overcast
3:53 AM 73.0 °F 71.1 °F 93% 29.99 in 1.0 mi SSW 9.2 mph - N/A   Overcast
4:19 AM 73.4 °F 71.6 °F 94% 29.99 in 3.0 mi SSW 8.1 mph - N/A   Overcast
4:53 AM 73.0 °F 71.1 °F 93% 30.01 in 6.0 mi South 9.2 mph - N/A   Overcast
5:29 AM 71.6 °F 69.8 °F 94% 30.01 in 2.0 mi South 8.1 mph - N/A   Overcast
5:44 AM 71.6 °F 69.8 °F 94% 30.01 in 4.0 mi South 9.2 mph - N/A   Overcast
5:53 AM 72.0 °F 70.0 °F 93% 30.02 in 4.0 mi South 8.1 mph - N/A   Overcast
6:53 AM 72.0 °F 70.0 °F 93% 30.04 in 5.0 mi South 9.2 mph - N/A   Overcast
7:53 AM 73.0 °F 71.1 °F 93% 30.06 in 6.0 mi South 10.4 mph - N/A   Mostly Cloudy
8:53 AM 73.9 °F 71.1 °F 91% 30.07 in 8.0 mi South 12.7 mph - N/A   Scattered Clouds
9:53 AM 75.0 °F 71.1 °F 87% 30.08 in 10.0 mi South 9.2 mph - N/A   Mostly Cloudy
10:53 AM 77.0 °F 71.1 °F 82% 30.07 in 10.0 mi South 12.7 mph - N/A   Mostly Cloudy
11:53 AM 77.0 °F 71.1 °F 82% 30.05 in 10.0 mi South 18.4 mph 23.0 mph N/A   Mostly Cloudy
12:33 PM 77.0 °F 69.8 °F 78% 30.03 in 10.0 mi South 15.0 mph - N/A   Mostly Cloudy
12:53 PM 75.9 °F 71.1 °F 85% 30.03 in 10.0 mi South 15.0 mph - N/A   Mostly Cloudy
1:44 PM 77.0 °F 71.6 °F 83% 30.01 in 10.0 mi South 13.8 mph - N/A   Mostly Cloudy
1:53 PM 75.9 °F 71.1 °F 85% 30.01 in 10.0 mi South 15.0 mph - N/A   Mostly Cloudy
2:53 PM 75.0 °F 71.1 °F 87% 30.01 in 10.0 mi South 11.5 mph - 0.00 in Rain Light Rain
3:53 PM 73.9 °F 70.0 °F 87% 30.02 in 9.0 mi South 11.5 mph - 0.00 in   Overcast
4:53 PM 73.0 °F 70.0 °F 90% 30.02 in 8.0 mi South 10.4 mph - N/A   Overcast
5:53 PM 73.0 °F 71.1 °F 93% 30.02 in 8.0 mi South 11.5 mph - N/A   Overcast
6:53 PM 73.0 °F 71.1 °F 93% 30.03 in 7.0 mi South 10.4 mph - N/A   Overcast
7:53 PM 73.0 °F 70.0 °F 90% 30.03 in 7.0 mi South 11.5 mph - N/A   Overcast
8:53 PM 73.0 °F 71.1 °F 93% 30.04 in 7.0 mi South 10.4 mph - N/A   Overcast
9:14 PM 73.4 °F 71.6 °F 94% 30.03 in 7.0 mi South 9.2 mph - N/A   Overcast
9:53 PM 73.0 °F 70.0 °F 90% 30.05 in 7.0 mi South 8.1 mph - N/A   Overcast
10:53 PM 73.0 °F 70.0 °F 90% 30.06 in 8.0 mi South 9.2 mph - N/A   Overcast
11:23 PM 73.4 °F 69.8 °F 88% 30.05 in 8.0 mi South 8.1 mph - N/A   Overcast
11:53 PM 73.0 °F 70.0 °F 90% 30.05 in 8.0 mi South 6.9 mph - N/A   Overcast